Location: Remedello Sotto
(45.2500°N, 10.3667°E)
Time: 10:08:55
(UTC+00:00)

Cosmos 841 Rocket - Pass Details

Date: 03 February 2023
Orbit: 746 x 771 km, 74.0° (Epoch: 20 March)

Event Time Altitude Azimuth Distance (km) Brightness Sun altitude
Rises 18:30:45 0° 337° (NNW) 3,256 7.0 -21.8°
Reaches altitude 10° 18:33:09 10° 337° (NNW) 2,324 6.2 -22.2°
Maximum altitude 18:38:26 80° 251° (WSW) 787 3.5 -23.1°
Enters shadow 18:42:40 16° 166° (SSE) 1,924 5.4 -23.9°
